Regional Weather Roundup
Issued by NWS

Home | Current Version | Previous Version | Text Only | Print | Product List | Glossary On
Versions: 1 2 3 4 5 6 7 8 9 10 11 12 13 14 15 16 17 18 19 20 21 22 23 24 25 26 27 28 29 30 31 32 33 34 35 36 37 38 39 40 41 42
000
ASUS46 KPQR 021610
RWROR

OREGON REGIONAL WEATHER ROUNDUP
NATIONAL WEATHER SERVICE PORTLAND OR
900 AM PDT THU OCT 02 2014

NOTE: "FAIR" INDICATES FEW OR NO CLOUDS BELOW 12,000 FEET WITH
NO SIGNIFICANT WEATHER AND/OR OBSTRUCTIONS TO VISIBILITY.

ORZ001>013-021700-
NORTHWEST OREGON


CITY           SKY/WX    TMP DP  RH WIND       PRES   REMARKS
ASTORIA        SUNNY     52  49  89 SE3       30.26R
NEWPORT        SUNNY     54  50  87 E9        30.26R
PORTLAND       PTSUNNY   52  49  89 SW3       30.27R
VANCOUVER WA   CLOUDY    50  48  93 NE3       30.27R FOG
SCAPPOOSE      SUNNY     51  48  89 NE3       30.26S
HILLSBORO      SUNNY     50  48  93 CALM      30.26R
AURORA         SUNNY     51  47  86 CALM      30.27R
MCMINNVILLE    SUNNY     51  47  86 CALM      30.27R
SALEM          SUNNY     52  47  83 CALM      30.25R
CORVALLIS      SUNNY     48  45  87 CALM      30.26S
EUGENE         MOSUNNY   49  46  90 CALM      30.26R
$$

ORZ021-028-021700-
SOUTHWEST OREGON


CITY           SKY/WX    TMP DP  RH WIND       PRES   REMARKS
NORTH BEND     SUNNY     54  54 100 N5        30.19S
BROOKINGS      SUNNY     69  45  42 CALM      30.07R
ROSEBURG       SUNNY     48  44  86 SW3       30.24R
SEXTON SUMMIT  SUNNY     59  37  44 E5        30.23R
MEDFORD        SUNNY     51  44  77 CALM      30.23R
$$

ORZ009-041-021700-
COLUMBIA GORGE


CITY           SKY/WX    TMP DP  RH WIND       PRES   REMARKS
TROUTDALE      SUNNY     52  46  80 CALM      30.26R
THE DALLES     SUNNY     57  42  57 E5        30.25R
$$

ORZ029>031-042>050-061>064-021700-
EASTERN OREGON


CITY           SKY/WX    TMP DP  RH WIND       PRES   REMARKS
REDMOND        SUNNY     48  27  44 E3        30.24R
BEND           SUNNY     48  32  53 S7        30.25R
KLAMATH FALLS  SUNNY     43  34  70 CALM      30.27S
LAKEVIEW       SUNNY     39  27  60 CALM      30.31R
HERMISTON      SUNNY     55  40  56 CALM      30.25R
PENDLETON      SUNNY     50  36  58 S6        30.25R
JOHN DAY       MOSUNNY   46  31  55 E7        30.25R
MEACHAM        PTSUNNY   42  35  76 CALM      30.25R
LA GRANDE      SUNNY     45  30  57 CALM      30.24R
BAKER CITY     SUNNY     44  37  76 SW3       30.24R
BURNS          SUNNY     41  30  65 CALM      30.27R
ROME             N/A     50  33  52 SW5       30.24S
ONTARIO        MOSUNNY   46  39  76 CALM      30.25R
$$



USA.gov is the U.S. government's official web portal to all federal, state and local government web resources and services.